Other Public Products
Issued by NWS Grand Forks, ND

Home | Current Version | Previous Version | Text Only | Print | Product List | Glossary Off
Versions: 1 2 3 4 5 6 7 8 9 10 11 12 13 14 15 16 17 18 19 20 21 22 23 24 25 26 27 28 29 30 31 32 33 34 35 36 37 38 39 40 41 42 43 44 45 46 47 48 49 50

000
FPUS83 KFGF 060331
OPUFGF
PRAIRIE TO PINES WEATHER ROUNDUP
NATIONAL WEATHER SERVICE EASTERN NORTH DAKOTA/GRAND FORKS ND
1000 PM CDT THU MAY 05 2016

 **SATELLITE DATA USED TO AUGMENT SKY COVER AT AUTOMATED STATIONS**
 *****  WEATHER ACROSS EASTERN NORTH DAKOTA  *****

CITY           SKY/WX    TMP DP  RH WIND       PRES   REMARKS
GRAND FORKS    PTCLDY    67  38  34 SW7       29.71S
GRAND FORKS AF PTCLDY    68  39  34 SW6       29.72S
GRAND CITY NWS NOT AVBL
BUXTON           N/A     76  39  25 S6          N/A
DEVILS LAKE    CLOUDY    72  43  35 SW12      29.74S
FARGO          CLEAR     76  40  27 SW12      29.76R
WAHPETON ARPT  CLEAR     70  36  28 SW10      29.82R
$$

 *****  WEATHER ACROSS CENTRAL AND WESTERN NORTH DAKOTA  *****

CITY           SKY/WX    TMP DP  RH WIND       PRES   REMARKS
JAMESTOWN      CLEAR     73  44  35 W6        29.78R
BISMARCK       MOCLDY    68  48  48 CALM      29.78R
MINOT          PTCLDY    77  40  26 SW8       29.72S
MINOT AFB      CLEAR     69  42  36 SW7       29.71R
GARRISON         N/A     70  39  32 S3        29.76R
WILLISTON      PTCLDY    66  43  43 W10       29.75R
DICKINSON      PTCLDY    65  37  35 S5        29.79S
HETTINGER      PTCLDY    67  50  54 SE6       29.84S
$$

 *****  OTHER OBSERVATIONS NORTHEAST NORTH DAKOTA  *****

CITY           SKY/WX    TMP DP  RH WIND       PRES   REMARKS
WALHALLA       FAIR      77  39  25 SW8       29.68S
LANGDON        FAIR      66  37  34 S13       29.73S
CAVALIER       FAIR      75  41  29 SW7       29.68S
GRAFTON        FAIR      68  39  34 SW10      29.71S
CANDO          FAIR      70  39  32 SW12      29.74S
FORT TOTTEN      N/A     75  37  25 S6        29.95
ROLLA          FAIR      66  39  37 SW13      29.73S
RUGBY          FAIR      72  43  35 S15       29.72S
 ***** THE ABOVE OBSERVATIONS ARE NON NWS ARE NOT QUALITY
        CONTROLLED AND MAY MIS-REPORT RAIN FOR SNOW...
$$

 *****  OTHER OBSERVATIONS SOUTHEAST NORTH DAKOTA *****

CITY           SKY/WX    TMP DP  RH WIND       PRES   REMARKS
COOPERSTOWN    NOT AVBL
VALLEY CITY    FAIR      68  45  42 S12       29.80S
OAKES            N/A    N/A N/A N/A MISG        N/A
GWINNER        FAIR      66  43  42 S13       29.82R
SHEYENNE NWR     N/A     68  42  38 S7        29.95S
BUFFALO          N/A     74  36  25 SW9         N/A
WYNDMERE         N/A     70  43  37 S8          N/A
 ***** THE ABOVE OBSERVATIONS ARE NON NWS ARE NOT QUALITY
       CONTROLLED AND MAY MIS-REPORT RAIN FOR SNOW...
$$

  *****  WEATHER ACROSS NORTHERN MINNESOTA  *****

CITY           SKY/WX    TMP DP  RH WIND       PRES   REMARKS
FLAG ISLAND    CLOUDY    61  43  51 SE3       29.66F
WARROAD        CLEAR     75  46  35 SW7       29.69S
ROSEAU         CLEAR     72  45  37 SW9       29.69S
HALLOCK        CLEAR     73  30  20 SW10      29.67S
THF RVR FALLS  CLOUDY    75  30  19 SW8       29.75S
HALSTAD        NOT AVBL
FOSSTON        CLEAR     63  32  31 S6        29.78S
BAUDETTE       CLEAR     69  38  32 CALM      29.70R
WASKISH        CLEAR     75  39  27 SW10      29.73S
CROOKSTON      CLEAR     70  36  28 SW7       29.74S
$$
  *****  WEATHER ACROSS CENTRAL AND WEST MINNESOTA  *****

CITY           SKY/WX    TMP DP  RH WIND       PRES   REMARKS
BEMIDJI        CLEAR     72  38  29 SW7       29.78S
PARK RAPIDS    CLEAR     69  38  32 SW10      29.81R
WADENA         CLEAR     68  43  40 SW6       29.84R
DETROIT LAKES  CLEAR     72  37  28 SW8       29.83S
MOORHEAD       CLEAR     73  37  27 S10       29.79R
FERGUS FALLS   CLEAR     68  41  37 SW9       29.80S
ELBOW LAKE     FAIR      62  43  48 S8        29.86R
MORRIS MN      CLEAR     66  41  39 SW8       29.86R
STAPLES        CLEAR     72  39  30 SW8       29.84R
WHEATON        CLEAR     70  45  40 S10       29.86R
$$
  *****  WEATHER ELSEWHERE ACROSS MINNESOTA  *****

CITY           SKY/WX    TMP DP  RH WIND       PRES   REMARKS
DULUTH         CLEAR     71  41  33 SW13      29.80R
INTRNTL FALLS  CLEAR     58  48  69 CALM      29.71R
ELY            CLEAR     70  39  32 S5        29.76S
CLOQUET        CLEAR     70  36  28 SW6       29.81S
BRAINERD       CLEAR     69  44  40 S8        29.83R
HIBBING        PTCLDY    69  42  37 SW6       29.77R
ALEXANDRIA     CLEAR     70  42  36 SW10      29.88R
SAINT CLOUD    CLEAR     68  42  38 SW6       29.86R
MINNEAPOLIS    PTCLDY    71  39  31 SW6       29.88R
$$

  *****  WEATHER ACROSS SOUTH DAKOTA  *****

CITY           SKY/WX    TMP DP  RH WIND       PRES   REMARKS
SIOUX FALLS    CLEAR     67  44  43 S12       29.93R
BROOKINGS      CLEAR     65  46  50 S10       29.91S
WATERTOWN      CLEAR     65  43  44 S7        29.89S
HURON          CLEAR     70  45  40 S13       29.85S
SISSETON         N/A     69  42  37 SW10      29.83S
ABERDEEN       PTCLDY    66  41  40 S10       29.83R
MITCHELL       CLEAR     68  47  46 S10       29.88S
PIERRE         MOCLDY    70  51  51 SE15      29.79S
MOBRIDGE       PTCLDY    65  52  62 SE8       29.79R
RAPID CITY     MOCLDY    63  43  48 E3        29.87R
$$

  *****  SOME WEATHER IN NEARBY STATES *****

CITY           SKY/WX    TMP DP  RH WIND       PRES   REMARKS
GLASGOW MT     CLOUDY    73  42  32 NW6       29.79R
GREAT FALLS MT CLOUDY    62  41  46 NE18      29.97R
CHEYENNE WY    MOCLDY    62  34  35 S7        30.07R
SCOTTSBLUFF NE MOCLDY    65  44  46 SE7       29.94R
OMAHA NE       MOCLDY    63  46  54 S6        30.00R
DES MOINES IA  CLEAR     60  38  43 S8        30.00S
DAVENPORT IA   CLEAR     59  34  39 CALM      30.01R
CHICAGO IL     PTCLDY    49  36  61 CALM      29.98S
EAU CLAIRE WI  CLEAR     59  38  45 S6        29.90S
LA CROSSE WI   CLEAR     60  42  51 SE6       29.93S
$$

  *****  SOME NATIONAL WEATHER *****

CITY           SKY/WX    TMP DP  RH WIND       PRES   REMARKS
LA GUARDIA NY  CLOUDY    53  47  79 NE17      29.68S
RALEIGH NC     LGT RAIN  49  47  93 NW5       29.67S
ATLANTA GA     PTCLDY    51  36  56 N13G21    29.87R
NEW ORLEANS LA PTCLDY    72  44  36 N20G26    29.95R
OKLAHOMA CITY  PTCLDY    65  44  46 E6        30.05R
ALBUQUERQUE NM PTCLDY    68  24  19 SE7       30.01R
SALT LAKE CITY CLOUDY    75  35  23 SW5       29.76R
LOS ANGELES CA MOCLDY    62  52  69 W9        29.86S
BOISE ID       CLOUDY    69  47  45 NW16      29.77R
SEATTLE WA     PTCLDY    63  48  58 N12       30.03R
$$

*** WEATHER ACROSS MANITOBA...SASKATCHEWAN AND ONTARIO ***
                ***ONTARIO***

CITY           SKY/WX    TMP DP  RH WIND       PRES   REMARKS
GERALDTON      PTCLDY    46  32  57 S8        29.80S
THUNDER BAY    PTCLDY    45  34  65 CALM      29.79F
SIOUX LOOKOUT  MOCLDY    59  45  58 S6        29.67S
TORONTO        PTCLDY    54  37  54 N15G22    29.82R
BIG TROUT LK   CLOUDY    36  18  48 E8        29.87R
PICKLE LAKE    NOT AVBL
DRYDEN         CLEAR     72  43  35 S10       29.67S
KENORA         PTCLDY    73  37  27 SW6       29.67S
$$
                *** MANITOBA***

CITY           SKY/WX    TMP DP  RH WIND       PRES   REMARKS
BRANDON        CLOUDY    81  41  24 NW5       29.65S
DAUPHIN        CLOUDY    73  39  29 NE3       29.61R
ISLAND LAKE    MOCLDY    48  32  53 E10G18    29.68S
PILOT MOUND      N/A     66  34  30 SW9         N/A
THE PAS        CLOUDY    50  37  62 N8        29.75R
THOMPSON       CLOUDY    41  21  45 NE9       29.81R
WINNIPEG       PTCLDY    77  36  22 SW7       29.63R
LYNN LAKE      CLOUDY    39  37  93 E3        29.82R
CHURCHILL      CLOUDY    25  19  80 SE10      30.01S WCI  15
GILLAM         CLOUDY    27  21  80 E7G17     29.91F WCI  19
$$
                ***SASKATCHEWAN***

CITY           SKY/WX    TMP DP  RH WIND       PRES   REMARKS
ESTEVAN        MOCLDY    68  39  34 NW12      29.72R
KINDERSLEY     MOCLDY    52  39  62 NW10      30.00R
LLOYDMINSTER   PTCLDY    46  39  76 W9        30.02R
PRINCE ALBERT  CLOUDY    55  41  58 N13       29.90R
REGINA         MOCLDY    70  45  40 N13       29.75R
YORKTON        CLEAR     72  41  33 SW9       29.65R  C1F1C2F2C3F3C4F4C5F5C6F6C7F7C8F8C9F9CaFaCbFbCcFcCdFdCe!


USA.gov is the U.S. government's official web portal to all federal, state and local government web resources and services.